STARLINK-32849, 62872

Orbit data source: Space-Track

STARLINK-32849, 62872 is a payload satellite owned by SpaceX/Seattle (US) in LEO that was launched on Sat, 01 Feb 2025 UTC via an FALCON 9 launch vehicle from the Air Force Western Test Range (AFWTR). Payload-class satellites include a variety of spacecraft equipped with specific instruments for various scientific and technological missions. These include communications satellites like Starlink; space stations such as the ISS; scientific satellites like the Hubble; Earth observation satellites from companies like Planet Labs, Umbra, and HawkEye 360; GPS; miniature CubeSats for education and research; and military/defense satellites.

Loading next visibility...
Identifier
62872, 2025-022U
Orbit
LEO
Country
Flag of USUS
Related business
Manufacturer
SpaceX/Seattle
Mission
Operational Commercial Communications
Bus & Motor
STARLINK V2M, Unknown motor
Mass
730 kg wet, ~700 kg dry
Launch date (UTC)
2025-02-01 (1 year ago)
Launch vehicle
FALCON 9
Launch site
Air Force Western Test Range (AFWTR)
Object type
Payload
Rocket body
Debris
Shape & HBR
Box + 2 Pan, 17.7 m
Radar Cross Section
33.884 m², Large (>1 m²)

Expand to show TLE details & history
Last TLE update: 7 hours ago

TLE from 7 hours ago
0 STARLINK-32849
1 62872U 25022U   26036.93272527  .00029137  00000-0  99213-3 0  9999
2 62872  53.1571 277.4317 0001109  77.2835 282.8289 15.30195991 57030
Epoch: 2026-02-05T22:23Z
TLE epoch observation values (Epoch: 2026-02-05T22:23:07.463Z)
Latitude
-0.00007°
Longitude
165.5727°
Altitude
475.958 km
Speed
7.629 km/s
True Right ascension
18h 29m 43s
True Declination
0° 00' 00"
Sunlit
Object was in daylight at epoch
Visualization orbit readout
Latitude
Unknown
Longitude
Unknown
Altitude
Unknown
Speed
Unknown
Apparent Right ascension
Unknown
Apparent Declination
Unknown
Sunlit
N/A
Visualization observer readout
Local Sidereal Time
07:35:44
Azimuth
Unknown
Elevation
Unknown
Doppler factor
Unknown
Orbital elements
Apogee altitude
476.244 km
Perigee altitude
474.724 km
Semi-major axis
6,853.621 km
Eccentricity
0.00011
Inclination
53.1571°
RAAN
277.4317°
Arg. of periapsis
77.2835°
True anomaly
282.81651°
Mean anomaly
282.8289°
Eccentric anomaly
282.8227°
Mean motion
3.82528 °/min
Orbital period
94.11 mins
BSTAR
0.00099213
Loading maneuver chart data...
Computing Atmospheric mass density...
Loading historical data...
Loading historical data...
Loading historical data...
Loading historical data...
Loading historical data...
Loading historical data...
Loading historical data...

Documentation

Showing up to 5 results
|